ONEWEB-0337 (49203 NORAD) Tracking and Keplerian Element Data

This shows tracking and keplerian element data for the satellite.

Feedback or suggestion? Click here.




ElementValue
Catalog49203
NameONEWEB-0337
Epoch Orbit775
Epoch Day300.58334491
Epoch Year2021
RAAN313.0983
Inclination87.1999
Eccentricity0.0022622
Argument of Perigee138.5447
Mean Anonmoly158.5691
Mean Motion14.87110334
Decay Rate-0.00029241
L11 49203U 21083T 21300.58334491 -.00029241 00000-0 -32632-2 0 9993
L22 49203 87.1999 313.0983 0022622 138.5447 158.5691 14.87110334 7752

Live tracking and technical data element details for ONEWEB-0337 (NORAD 49203). ONEWEB-0337 can be tracked NOW for your location showing map with azimuth and elevation plus other details from your city location.

Track the satellite on the map from your city or location and see movement details for azimuth, elevation, latitude, longitude, range, height, and movement on the map or in text.







IsCatalogInMostPopularTable: catalog: 49203, numindb: 11
Update: records affected: 1



GetName: 49203 ONEWEB-0337

Hit Count: updated at: Thu, 28 Oct 2021 10:49:52 GMT